FW9533 Weather Reports


time (UTC)temp
F
wind
direction
speed
knots
gust
knots
rain 1hr
in
rain 24hr
in
rain mn
in
humidity
%
barometer
mb
20260504000145 51 230 6.1 7.0 0.00 0.00 0.00 93 1003.0
20260503235643 52 224 5.2 7.8 0.00 0.00 0.00 90 1003.1
20260503235140 52 218 4.3 7.8 0.00 0.00 0.00 89 1003.3
20260503234638 52 221 6.1 8.7 0.00 0.00 0.00 88 1003.5
20260503234136 53 236 10.4 13.0 0.00 0.00 0.00 84 1003.7
20260503233632 55 217 7.8 11.3 0.00 0.00 0.00 89 1004.1
20260503233128 56 212 7.0 7.8 0.00 0.00 0.00 72 1004.1
20260503232625 58 239 11.3 14.8 0.00 0.00 0.00 63 1003.5
20260503232123 59 220 7.0 18.2 0.00 0.00 0.00 59 1003.1
20260503231620 59 225 11.3 13.9 0.00 0.00 0.00 58 1003.2
20260503231117 59 239 9.6 13.9 0.00 0.00 0.00 58 1003.0
20260503230614 59 205 7.0 13.0 0.00 0.00 0.00 59 1002.8
20260503230111 59 220 12.2 14.8 0.00 0.00 0.00 60 1002.8
20260503225608 59 227 12.2 13.9 0.00 0.00 0.00 60 1002.6
20260503225107 59 222 8.7 9.6 0.00 0.00 0.00 60 1002.4
20260503224605 59 217 11.3 15.6 0.00 0.00 0.00 59 1002.5
20260503224103 59 213 13.9 18.2 0.00 0.00 0.00 58 1002.6
20260503223601 60 222 11.3 15.6 0.00 0.00 0.00 58 1002.6
20260503223056 60 220 10.4 15.6 0.00 0.00 0.00 58 1002.3
20260503222554 60 222 9.6 13.9 0.00 0.00 0.00 58 1002.5
20260503222052 61 237 10.4 15.6 0.00 0.00 0.00 56 1002.7
20260503221550 61 224 7.8 14.8 0.00 0.00 0.00 57 1002.7
20260503221047 61 228 8.7 14.8 0.00 0.00 0.00 58 1002.6
20260503220543 61 200 13.0 17.4 0.00 0.00 0.00 58 1002.5
20260503220040 61 234 13.9 18.2 0.00 0.00 0.00 58 1002.5
20260503215537 61 215 13.0 14.8 0.00 0.00 0.00 58 1002.5
20260503215034 61 151 12.2 18.2 0.00 0.00 0.00 59 1002.4
20260503214533 61 210 8.7 14.8 0.00 0.00 0.00 59 1002.4
20260503214029 60 225 12.2 13.9 0.00 0.00 0.00 60 1002.7
20260503213528 59 243 7.8 13.9 0.00 0.00 0.00 62 1002.6
20260503213024 59 229 9.6 14.8 0.00 0.00 0.00 63 1002.7
20260503212521 61 242 8.7 13.0 0.00 0.00 0.00 60 1002.7
20260503212018 60 235 13.0 18.2 0.00 0.00 0.00 60 1003.3
20260503211515 60 224 18.2 20.9 0.00 0.00 0.00 59 1003.2
20260503211011 61 231 11.3 18.2 0.00 0.00 0.00 59 1003.2
20260503210508 61 230 12.2 20.0 0.00 0.00 0.00 60 1003.3
20260503210004 60 218 13.9 21.7 0.00 0.00 0.00 61 1003.5
20260503205501 60 205 13.0 14.8 0.00 0.00 0.00 63 1003.6
20260503204956 60 249 10.4 19.1 0.00 0.00 0.00 62 1003.6
20260503204454 60 228 13.0 20.0 0.00 0.00 0.00 62 1003.6
20260503203950 61 232 9.6 15.6 0.00 0.00 0.00 61 1003.6
20260503203448 61 235 9.6 13.9 0.00 0.00 0.00 60 1003.8
20260503202945 61 241 9.6 15.6 0.00 0.00 0.00 63 1003.6
20260503202443 60 231 16.5 20.0 0.00 0.00 0.00 62 1003.6
20260503201941 60 235 10.4 18.2 0.00 0.00 0.00 64 1004.1
20260503201438 60 227 10.4 14.8 0.00 0.00 0.00 64 1004.1
20260503200936 59 218 11.3 18.2 0.00 0.00 0.00 65 1004.1
20260503200432 60 223 9.6 17.4 0.00 0.00 0.00 64 1004.2
20260503195928 60 222 11.3 14.8 0.00 0.00 0.00 62 1004.3
20260503195426 59 242 12.2 15.6 0.00 0.00 0.00 63 1004.5
20260503194922 59 206 12.2 14.8 0.00 0.00 0.00 64 1004.6
20260503194419 58 227 12.2 17.4 0.00 0.00 0.00 66 1004.5
20260503193915 58 202 9.6 20.9 0.00 0.00 0.00 66 1004.5
20260503193410 58 236 7.8 14.8 0.00 0.00 0.00 67 1004.5
20260503192906 58 220 13.9 18.2 0.00 0.00 0.00 66 1004.9
20260503192403 58 164 7.8 12.2 0.00 0.00 0.00 70 1004.8
20260503191858 57 230 7.8 13.0 0.00 0.00 0.00 70 1005.0
20260503191356 57 247 12.2 15.6 0.00 0.00 0.00 70 1005.1
20260503190852 58 241 13.9 20.0 0.00 0.00 0.00 68 1005.5
20260503190350 57 230 10.4 18.2 0.00 0.00 0.00 69 1005.3
20260503185846 56 221 11.3 13.9 0.00 0.00 0.00 71 1005.4
20260503185343 56 206 13.0 18.2 0.00 0.00 0.00 70 1005.5
20260503184842 54 222 14.8 17.4 0.00 0.00 0.00 72 1005.4
20260503184339 55 231 14.8 18.2 0.00 0.00 0.00 71 1005.6
20260503183835 55 243 13.9 17.4 0.00 0.00 0.00 70 1005.5
20260503183332 54 215 10.4 15.6 0.00 0.00 0.00 74 1005.5
20260503182829 53 221 7.0 11.3 0.00 0.00 0.00 77 1005.7
20260503182328 52 225 6.1 9.6 0.00 0.00 0.00 79 1005.7
20260503181825 51 223 7.0 7.8 0.00 0.00 0.00 80 1005.7
20260503181322 51 233 4.3 9.6 0.00 0.00 0.00 80 1005.8
20260503180818 51 217 8.7 12.2 0.00 0.00 0.00 76 1006.0
20260503180317 52 216 7.8 12.2 0.00 0.00 0.00 71 1006.1
20260503175813 53 225 11.3 13.9 0.00 0.00 0.00 69 1006.2
20260503175311 54 215 9.6 12.2 0.00 0.00 0.00 68 1006.1
20260503174806 54 218 6.1 12.2 0.00 0.00 0.00 67 1006.0
20260503174304 54 230 7.0 9.6 0.00 0.00 0.00 66 1006.0
20260503173800 54 218 7.8 9.6 0.00 0.00 0.00 68 1006.3
20260503173256 54 224 4.3 7.8 0.00 0.00 0.00 70 1006.2
20260503172753 54 228 7.8 11.3 0.00 0.00 0.00 69 1006.2
20260503172250 54 201 6.1 8.7 0.00 0.00 0.00 71 1006.3
20260503171746 53 215 3.5 9.6 0.00 0.00 0.00 73 1006.3
20260503171244 53 229 7.0 11.3 0.00 0.00 0.00 74 1006.3
20260503170741 52 237 7.0 8.7 0.00 0.00 0.00 76 1006.4
20260503170237 52 205 7.8 9.6 0.00 0.00 0.00 77 1006.4
20260503160159 48 226 9.6 12.2 0.00 0.00 0.00 87 1006.9
20260503150629 47 214 7.8 12.2 0.00 0.00 0.00 94 1007.4
20260503150125 46 237 6.1 7.8 0.00 0.00 0.00 95 1007.2
20260503131019 44 223 7.8 12.2 0.00 0.00 0.00 86 1008.1
20260503130517 44 219 7.8 9.6 0.00 0.00 0.00 85 1008.1
20260503110407 43 231 6.1 7.8 0.00 0.00 0.00 74 1008.5
20260503090258 42 231 4.3 6.1 0.00 0.00 0.00 66 1008.9
20260503081231 42 245 2.6 4.3 0.00 0.00 0.00 66 1009.9
20260503080726 41 228 3.5 6.1 0.00 0.00 0.00 65 1009.9
20260503080224 41 261 3.5 5.2 0.00 0.00 0.00 67 1010.0
20260503072700 34 201 0.0 0.9 0.00 0.00 0.00 92 1010.4
20260503072157 33 193 0.0 0.0 0.00 0.00 0.00 91 1010.4
20260503071654 33 141 0.0 0.0 0.00 0.00 0.00 88 1010.3
20260503071151 33 152 0.0 0.9 0.00 0.00 0.00 90 1010.3
20260503070648 33 142 0.9 1.7 0.00 0.00 0.00 88 1010.4
20260503070146 33 160 0.9 0.9 0.00 0.00 0.00 87 1010.5
20260503060110 31 153 0.0 0.0 0.00 0.00 0.00 94 1011.6
20260503055102 31 218 0.0 0.0 0.00 0.00 0.00 95 1011.7
20260503054557 31 218 0.0 0.0 0.00 0.00 0.00 95 1011.7
20260503054054 31 229 0.0 0.0 0.00 0.00 0.00 94 1011.8
20260503053552 32 218 0.0 0.0 0.00 0.00 0.00 91 1011.9
20260503053050 32 202 0.0 0.0 0.00 0.00 0.00 87 1012.1
20260503052547 32 202 0.0 0.0 0.00 0.00 0.00 90 1012.3
20260503052043 31 203 0.0 0.0 0.00 0.00 0.00 91 1012.2
20260503051538 32 212 0.0 0.0 0.00 0.00 0.00 94 1012.6
20260503051037 31 216 0.0 0.0 0.00 0.00 0.00 94 1012.5
20260503050532 32 216 0.0 0.0 0.00 0.00 0.00 94 1012.6
20260503050030 32 216 0.0 0.0 0.00 0.00 0.00 94 1012.7
20260503045527 32 216 0.0 0.0 0.00 0.00 0.00 93 1012.7
20260503045024 32 216 0.0 0.0 0.00 0.00 0.00 92 1012.5
20260503044520 32 216 0.0 0.0 0.00 0.00 0.00 93 1012.7
20260503044018 32 216 0.0 0.0 0.00 0.00 0.00 89 1012.8
20260503043514 33 216 0.0 0.0 0.00 0.00 0.00 87 1013.0
20260503043011 33 212 0.0 0.0 0.00 0.00 0.00 83 1012.8
20260503042508 33 212 0.0 0.9 0.00 0.00 0.00 85 1013.1
20260503042004 33 213 0.0 0.9 0.00 0.00 0.00 88 1013.0
20260503041501 33 215 0.9 1.7 0.00 0.00 0.00 88 1013.2
20260503040959 34 170 0.0 0.0 0.00 0.00 0.00 71 1013.0
20260503040456 33 197 0.0 0.0 0.00 0.00 0.00 82 1013.3
20260503035953 33 205 0.0 0.0 0.00 0.00 0.00 86 1013.3
20260503035450 33 205 0.0 0.0 0.00 0.00 0.00 85 1013.2
20260503034947 33 205 0.0 0.0 0.00 0.00 0.00 88 1013.5
20260503034444 33 205 0.0 0.0 0.00 0.00 0.00 89 1013.6
20260503033941 33 205 0.0 0.0 0.00 0.00 0.00 92 1013.5
20260503033439 33 203 0.0 0.0 0.00 0.00 0.00 92 1013.6
20260503032937 34 203 0.0 0.0 0.00 0.00 0.00 92 1013.7
20260503032435 34 203 0.0 0.0 0.00 0.00 0.00 90 1013.6
20260503031932 34 203 0.0 0.0 0.00 0.00 0.00 88 1013.6
20260503031430 34 203 0.0 0.0 0.00 0.00 0.00 84 1013.8
20260503030926 34 203 0.9 0.9 0.00 0.00 0.00 88 1013.8
20260503030423 34 198 0.9 1.7 0.00 0.00 0.00 86 1013.8
20260503025920 34 194 0.9 0.9 0.00 0.00 0.00 88 1013.8
20260503025417 34 171 0.9 1.7 0.00 0.00 0.00 89 1014.1
20260503024914 35 79 0.0 0.0 0.00 0.00 0.00 87 1013.8
20260503024411 35 64 0.0 0.0 0.00 0.00 0.00 83 1014.1
20260503023908 35 64 0.0 0.0 0.00 0.00 0.00 83 1013.8
20260503023404 36 64 0.0 0.0 0.00 0.00 0.00 82 1014.1
20260503022901 36 64 0.0 0.0 0.00 0.00 0.00 85 1014.2
20260503022355 36 64 0.0 0.0 0.00 0.00 0.00 86 1014.3
20260503021852 37 62 0.0 0.0 0.00 0.00 0.00 85 1014.2
20260503021349 37 62 0.0 0.0 0.00 0.00 0.00 82 1014.2
20260503020846 37 62 0.0 0.0 0.00 0.00 0.00 74 1014.2
20260503020344 37 62 0.0 0.0 0.00 0.00 0.00 72 1013.9
20260503015840 37 62 0.0 0.0 0.00 0.00 0.00 74 1013.9
20260503015337 37 62 0.0 0.0 0.00 0.00 0.00 75 1013.9
20260503014833 37 62 0.0 0.0 0.00 0.00 0.00 73 1014.2
20260503014331 38 62 0.0 0.0 0.00 0.00 0.00 73 1013.8
20260503013828 38 62 0.0 0.0 0.00 0.00 0.00 74 1014.1
20260503013325 38 62 0.0 0.0 0.00 0.00 0.00 68 1014.1
20260503012822 39 62 0.0 0.0 0.00 0.00 0.00 66 1014.1
20260503012320 39 62 0.0 0.0 0.00 0.00 0.00 66 1013.8
20260503011816 39 62 0.0 0.0 0.00 0.00 0.00 62 1013.8
20260503011313 40 62 0.0 0.0 0.00 0.00 0.00 64 1013.9
20260503010809 40 62 0.0 0.0 0.00 0.00 0.00 66 1013.8
20260503010307 41 62 0.0 0.9 0.00 0.00 0.00 64 1013.8
20260503005804 41 62 0.0 0.9 0.00 0.00 0.00 65 1013.7
20260503005304 42 62 0.0 0.0 0.00 0.00 0.00 64 1014.1
20260503004756 42 62 0.0 0.9 0.00 0.00 0.00 63 1013.8
20260503004255 43 62 0.0 0.9 0.00 0.00 0.00 59 1013.6
20260503003752 44 62 0.9 1.7 0.00 0.00 0.00 58 1013.9
20260503003249 44 61 0.9 0.9 0.00 0.00 0.00 60 1013.8
20260503002745 45 69 1.7 1.7 0.00 0.00 0.00 55 1014.1
20260503002243 46 49 1.7 1.7 0.00 0.00 0.00 44 1014.2
20260503001739 46 50 2.6 4.3 0.00 0.00 0.00 41 1014.1
20260503001235 47 56 2.6 2.6 0.00 0.00 0.00 45 1014.3
20260503000733 47 48 1.7 1.7 0.00 0.00 0.00 38 1014.2